AAL1884 KBNA-KMIA

Flight info

Callsign AAL1884
Flight time 1h 40m
Altitude 33000
Route TIPPN4 DENST HONID FROGZ5
Aircraft B738/M-VGDW/C

Departure

Time 2026-05-06 20:29
Airport Nashville International Airport (KBNA)

Arrival

Time 2026-05-06 22:10
Airport Miami International Airport (KMIA)
Time Latitude Longitude Altitude Speed Heading
2026-05-06 20:16 36.13239 -86.67248 607 ft 0 kts 61°
2026-05-06 20:18 36.13238 -86.67252 607 ft 1 kts 61°
2026-05-06 20:19 36.13231 -86.67268 607 ft 2 kts 60°
2026-05-06 20:19 36.13223 -86.67284 607 ft 2 kts 60°
2026-05-06 20:19 36.13216 -86.67300 607 ft 2 kts 60°
2026-05-06 20:19 36.13209 -86.67316 607 ft 2 kts 60°
2026-05-06 20:20 36.13202 -86.67333 607 ft 2 kts 60°
2026-05-06 20:20 36.13198 -86.67348 607 ft 1 kts 109°
2026-05-06 20:20 36.13201 -86.67356 607 ft 0 kts 117°
2026-05-06 20:20 36.13202 -86.67359 607 ft 0 kts 116°
2026-05-06 20:22 36.13202 -86.67358 607 ft 0 kts 116°
2026-05-06 20:22 36.13205 -86.67352 607 ft 1 kts 34°
2026-05-06 20:23 36.13234 -86.67358 607 ft 4 kts 347°
2026-05-06 20:23 36.13277 -86.67357 607 ft 6 kts 13°
2026-05-06 20:23 36.13332 -86.67340 607 ft 10 kts 16°
2026-05-06 20:23 36.13398 -86.67326 607 ft 12 kts 348°
2026-05-06 20:24 36.13454 -86.67454 607 ft 18 kts 287°
2026-05-06 20:24 36.13493 -86.67605 607 ft 18 kts 287°
2026-05-06 20:24 36.13525 -86.67743 607 ft 11 kts 266°
2026-05-06 20:24 36.13463 -86.67795 607 ft 17 kts 198°
2026-05-06 20:25 36.13319 -86.67852 607 ft 22 kts 197°
2026-05-06 20:25 36.13173 -86.67911 607 ft 21 kts 197°
2026-05-06 20:25 36.13035 -86.67964 607 ft 20 kts 198°
2026-05-06 20:25 36.12899 -86.68018 607 ft 19 kts 197°
2026-05-06 20:26 36.12770 -86.68067 607 ft 19 kts 196°
2026-05-06 20:26 36.12640 -86.68113 607 ft 20 kts 196°
2026-05-06 20:26 36.12496 -86.68166 607 ft 23 kts 195°
2026-05-06 20:26 36.12333 -86.68224 607 ft 24 kts 196°
2026-05-06 20:27 36.12183 -86.68277 607 ft 17 kts 195°
2026-05-06 20:27 36.12056 -86.68323 607 ft 23 kts 196°
2026-05-06 20:27 36.11883 -86.68384 607 ft 23 kts 195°
2026-05-06 20:27 36.11742 -86.68440 607 ft 10 kts 215°
2026-05-06 20:28 36.11744 -86.68513 607 ft 8 kts 287°
2026-05-06 20:28 36.11769 -86.68607 607 ft 16 kts 295°
2026-05-06 20:28 36.11880 -86.68603 607 ft 30 kts 17°
2026-05-06 20:28 36.12415 -86.68397 607 ft 125 kts 17°
2026-05-06 20:29 36.13448 -86.68005 889 ft 176 kts 15°
2026-05-06 20:29 36.14663 -86.67532 1845 ft 192 kts 20°
2026-05-06 20:29 36.15742 -86.66588 2928 ft 205 kts 45°
2026-05-06 20:29 36.16565 -86.65142 3720 ft 218 kts 53°
2026-05-06 20:30 36.17466 -86.63523 4600 ft 239 kts 51°
2026-05-06 20:30 36.19677 -86.60019 6024 ft 286 kts 48°
2026-05-06 20:30 36.20943 -86.58044 6952 ft 304 kts 50°
2026-05-06 20:31 36.22040 -86.55775 8014 ft 315 kts 66°
2026-05-06 20:31 36.22471 -86.53100 8973 ft 326 kts 94°
2026-05-06 20:31 36.22042 -86.50385 9952 ft 329 kts 111°
2026-05-06 20:31 36.21128 -86.47788 10844 ft 332 kts 128°
2026-05-06 20:32 36.19604 -86.45664 11617 ft 328 kts 149°
2026-05-06 20:32 36.17651 -86.44230 12164 ft 331 kts 165°
2026-05-06 20:32 36.15497 -86.43359 12791 ft 333 kts 175°
2026-05-06 20:32 36.13209 -86.43068 13408 ft 333 kts 188°
2026-05-06 20:33 36.10851 -86.43206 13985 ft 341 kts 192°
2026-05-06 20:33 36.08456 -86.43448 14443 ft 355 kts 192°
2026-05-06 20:33 36.05936 -86.43665 14902 ft 370 kts 191°
2026-05-06 20:33 36.03349 -86.43853 15523 ft 377 kts 193°
2026-05-06 20:34 36.00706 -86.44103 16224 ft 382 kts 192°
2026-05-06 20:34 35.98024 -86.44273 16628 ft 397 kts 190°
2026-05-06 20:34 35.95235 -86.44305 17456 ft 398 kts 190°
2026-05-06 20:34 35.92504 -86.44338 18179 ft 399 kts 191°
2026-05-06 20:35 35.89696 -86.44441 18598 ft 408 kts 192°
2026-05-06 20:35 35.86843 -86.44582 19373 ft 408 kts 192°
2026-05-06 20:35 35.84020 -86.44727 19934 ft 414 kts 192°
2026-05-06 20:35 35.81139 -86.44871 20603 ft 416 kts 192°
2026-05-06 20:36 35.78211 -86.45016 21117 ft 423 kts 192°
2026-05-06 20:36 35.75260 -86.45167 21750 ft 425 kts 192°
2026-05-06 20:36 35.72248 -86.45323 21978 ft 438 kts 192°
2026-05-06 20:36 35.69241 -86.45469 22892 ft 433 kts 192°
2026-05-06 20:37 35.66217 -86.45606 23283 ft 441 kts 192°
2026-05-06 20:37 35.63101 -86.45723 23798 ft 448 kts 190°
2026-05-06 20:37 35.59980 -86.45573 24201 ft 463 kts 185°
2026-05-06 20:37 35.56754 -86.44994 24873 ft 470 kts 179°
2026-05-06 20:38 35.53546 -86.44151 25418 ft 477 kts 176°
2026-05-06 20:38 35.50290 -86.43162 25920 ft 482 kts 175°
2026-05-06 20:38 35.47085 -86.42125 26572 ft 482 kts 175°
2026-05-06 20:38 35.43830 -86.41077 27326 ft 480 kts 174°
2026-05-06 20:39 35.40675 -86.39805 28042 ft 487 kts 167°
2026-05-06 20:39 35.37595 -86.37968 28740 ft 498 kts 159°
2026-05-06 20:39 35.34706 -86.35602 29414 ft 506 kts 152°
2026-05-06 20:39 35.31962 -86.32893 30135 ft 507 kts 149°
2026-05-06 20:40 35.29318 -86.30021 30818 ft 507 kts 147°
2026-05-06 20:40 35.26777 -86.27133 31155 ft 512 kts 147°
2026-05-06 20:40 35.24131 -86.24106 31564 ft 514 kts 147°
2026-05-06 20:40 35.21508 -86.21127 32014 ft 514 kts 148°
2026-05-06 20:41 35.18923 -86.18091 32470 ft 516 kts 146°
2026-05-06 20:41 35.16352 -86.15086 32906 ft 512 kts 147°
2026-05-06 20:41 35.13651 -86.12197 32955 ft 513 kts 148°
2026-05-06 20:42 35.08242 -86.06698 32938 ft 502 kts 149°
2026-05-06 20:42 35.02970 -86.01125 32944 ft 501 kts 148°
2026-05-06 20:43 34.97759 -85.95478 32931 ft 502 kts 148°
2026-05-06 20:43 34.92492 -85.89848 32922 ft 505 kts 147°
2026-05-06 20:44 34.87269 -85.84170 32931 ft 501 kts 147°
2026-05-06 20:44 34.82039 -85.78574 32931 ft 503 kts 148°
2026-05-06 20:45 34.76520 -85.73434 32940 ft 488 kts 158°
2026-05-06 20:45 34.70591 -85.69820 32944 ft 473 kts 169°
2026-05-06 20:46 34.64364 -85.67175 32946 ft 472 kts 172°
2026-05-06 20:46 34.58183 -85.64658 32947 ft 463 kts 172°
2026-05-06 20:47 34.52065 -85.62100 32956 ft 475 kts 171°
2026-05-06 20:47 34.45787 -85.59425 32953 ft 471 kts 170°
2026-05-06 20:48 34.39656 -85.56740 32955 ft 475 kts 170°
2026-05-06 20:48 34.33392 -85.53991 32943 ft 473 kts 170°
2026-05-06 20:49 34.27189 -85.51258 32945 ft 474 kts 169°
2026-05-06 20:49 34.20941 -85.48509 32937 ft 475 kts 169°
2026-05-06 20:50 34.14780 -85.45791 32944 ft 472 kts 169°
2026-05-06 20:50 34.08554 -85.43076 32945 ft 480 kts 168°
2026-05-06 20:51 34.02330 -85.40342 32945 ft 472 kts 169°
2026-05-06 20:51 33.96113 -85.37628 32949 ft 479 kts 169°
2026-05-06 20:52 33.89813 -85.34890 32952 ft 478 kts 169°
2026-05-06 20:52 33.83608 -85.32189 32961 ft 474 kts 170°
2026-05-06 20:53 33.77359 -85.29474 32958 ft 477 kts 169°
2026-05-06 20:53 33.71105 -85.26769 32973 ft 478 kts 170°
2026-05-06 20:54 33.64884 -85.24076 32987 ft 477 kts 170°
2026-05-06 20:54 33.58630 -85.21372 32992 ft 480 kts 170°
2026-05-06 20:55 33.52351 -85.18662 32988 ft 480 kts 170°
2026-05-06 20:55 33.46031 -85.15939 32981 ft 482 kts 170°
2026-05-06 20:56 33.39704 -85.13216 32972 ft 485 kts 170°
2026-05-06 20:56 33.33360 -85.10493 32964 ft 487 kts 170°
2026-05-06 20:57 33.26971 -85.07755 32959 ft 487 kts 170°
2026-05-06 20:57 33.20553 -85.05016 32967 ft 491 kts 170°
2026-05-06 20:58 33.14128 -85.02263 32972 ft 491 kts 170°
2026-05-06 20:58 33.07787 -84.99554 32977 ft 492 kts 170°
2026-05-06 20:59 33.01307 -84.96795 32987 ft 491 kts 170°
2026-05-06 20:59 32.94893 -84.94064 32993 ft 496 kts 170°
2026-05-06 21:00 32.88375 -84.91293 32994 ft 495 kts 170°
2026-05-06 21:00 32.81871 -84.88529 32994 ft 497 kts 170°
2026-05-06 21:01 32.75374 -84.85776 32995 ft 494 kts 170°
2026-05-06 21:01 32.68877 -84.83029 32988 ft 496 kts 170°
2026-05-06 21:02 32.62386 -84.80289 32982 ft 493 kts 170°
2026-05-06 21:02 32.55869 -84.77545 32978 ft 498 kts 170°
2026-05-06 21:03 32.49387 -84.74821 32981 ft 497 kts 170°
2026-05-06 21:03 32.42891 -84.72089 32981 ft 495 kts 170°
2026-05-06 21:04 32.36385 -84.69357 32979 ft 497 kts 170°
2026-05-06 21:04 32.29890 -84.66634 32977 ft 495 kts 170°
2026-05-06 21:05 32.23342 -84.63899 32975 ft 498 kts 169°
2026-05-06 21:05 32.16821 -84.61172 32976 ft 497 kts 170°
2026-05-06 21:06 32.10310 -84.58452 32976 ft 497 kts 169°
2026-05-06 21:06 32.03813 -84.55747 32982 ft 499 kts 169°
2026-05-06 21:07 31.97245 -84.53020 32982 ft 500 kts 169°
2026-05-06 21:07 31.90718 -84.50306 32977 ft 497 kts 169°
2026-05-06 21:08 31.84147 -84.47581 32976 ft 499 kts 169°
2026-05-06 21:08 31.77611 -84.44878 32972 ft 497 kts 169°
2026-05-06 21:09 31.71051 -84.42170 32972 ft 498 kts 169°
2026-05-06 21:09 31.64507 -84.39511 32972 ft 498 kts 171°
2026-05-06 21:10 31.57835 -84.37465 32984 ft 492 kts 176°
2026-05-06 21:10 31.51147 -84.35850 32983 ft 488 kts 178°
2026-05-06 21:11 31.44453 -84.34290 32973 ft 488 kts 178°
2026-05-06 21:11 31.37827 -84.32701 32982 ft 491 kts 177°
2026-05-06 21:12 31.31141 -84.31054 32983 ft 489 kts 177°
2026-05-06 21:12 31.24505 -84.29397 32982 ft 490 kts 177°
2026-05-06 21:13 31.17792 -84.27714 32988 ft 493 kts 177°
2026-05-06 21:13 31.11058 -84.26016 32983 ft 491 kts 176°
2026-05-06 21:14 31.04359 -84.24333 32980 ft 491 kts 176°
2026-05-06 21:14 30.97695 -84.22665 32970 ft 493 kts 176°
2026-05-06 21:15 30.90998 -84.20990 32964 ft 489 kts 176°
2026-05-06 21:15 30.84304 -84.19318 32972 ft 493 kts 176°
2026-05-06 21:16 30.77584 -84.17648 32975 ft 493 kts 176°
2026-05-06 21:16 30.70902 -84.15981 32978 ft 491 kts 176°
2026-05-06 21:17 30.64195 -84.14311 32992 ft 492 kts 176°
2026-05-06 21:17 30.57489 -84.12649 33000 ft 490 kts 176°
2026-05-06 21:18 30.50839 -84.10997 33005 ft 490 kts 176°
2026-05-06 21:18 30.44142 -84.09343 33011 ft 489 kts 176°
2026-05-06 21:19 30.37494 -84.07233 33008 ft 500 kts 167°
2026-05-06 21:19 30.31170 -84.03860 33010 ft 507 kts 158°
2026-05-06 21:20 30.24967 -83.99767 33008 ft 510 kts 155°
2026-05-06 21:20 30.18893 -83.95580 33015 ft 511 kts 155°
2026-05-06 21:21 30.12789 -83.91431 33026 ft 508 kts 156°
2026-05-06 21:21 30.06660 -83.87334 33020 ft 509 kts 156°
2026-05-06 21:22 30.00520 -83.83279 33015 ft 510 kts 156°
2026-05-06 21:22 29.94342 -83.79215 33029 ft 508 kts 156°
2026-05-06 21:23 29.88150 -83.75144 33021 ft 510 kts 156°
2026-05-06 21:23 29.82032 -83.71121 33021 ft 507 kts 155°
2026-05-06 21:24 29.75885 -83.67089 33018 ft 507 kts 155°
2026-05-06 21:24 29.69743 -83.63070 33012 ft 509 kts 155°
2026-05-06 21:25 29.63587 -83.59041 33019 ft 508 kts 155°
2026-05-06 21:25 29.57423 -83.55013 33016 ft 509 kts 155°
2026-05-06 21:26 29.51280 -83.51002 33021 ft 508 kts 155°
2026-05-06 21:26 29.45136 -83.46999 33022 ft 508 kts 155°
2026-05-06 21:27 29.38992 -83.43002 33021 ft 508 kts 155°
2026-05-06 21:27 29.32868 -83.39021 33023 ft 508 kts 155°
2026-05-06 21:28 29.26725 -83.35035 33022 ft 506 kts 155°
2026-05-06 21:28 29.20437 -83.31396 33025 ft 503 kts 161°
2026-05-06 21:29 29.14031 -83.28176 33024 ft 501 kts 162°
2026-05-06 21:29 29.07601 -83.25034 33024 ft 501 kts 162°
2026-05-06 21:30 29.01157 -83.21859 33028 ft 513 kts 162°
2026-05-06 21:30 28.94552 -83.18566 33028 ft 514 kts 161°
2026-05-06 21:31 28.88032 -83.15282 33027 ft 512 kts 161°
2026-05-06 21:31 28.81505 -83.11988 33030 ft 514 kts 161°
2026-05-06 21:32 28.74950 -83.08684 33023 ft 513 kts 161°
2026-05-06 21:32 28.65200 -83.03783 33025 ft 513 kts 161°
2026-05-06 21:33 28.58615 -83.00476 33022 ft 513 kts 161°
2026-05-06 21:33 28.52132 -82.97225 33020 ft 513 kts 161°
2026-05-06 21:34 28.45641 -82.93977 33017 ft 513 kts 161°
2026-05-06 21:34 28.39076 -82.90699 33018 ft 512 kts 161°
2026-05-06 21:35 28.32565 -82.87452 33020 ft 513 kts 161°
2026-05-06 21:35 28.25998 -82.84180 33021 ft 513 kts 161°
2026-05-06 21:36 28.19493 -82.80940 33023 ft 511 kts 160°
2026-05-06 21:36 28.12992 -82.77708 33030 ft 512 kts 160°
2026-05-06 21:37 28.06516 -82.74493 33038 ft 512 kts 160°
2026-05-06 21:37 27.99944 -82.71668 33030 ft 507 kts 168°
2026-05-06 21:38 27.93209 -82.69911 33031 ft 502 kts 174°
2026-05-06 21:38 27.86471 -82.68630 33027 ft 500 kts 176°
2026-05-06 21:39 27.79728 -82.67422 33028 ft 499 kts 176°
2026-05-06 21:39 27.72951 -82.66173 33027 ft 501 kts 176°
2026-05-06 21:40 27.66264 -82.64898 33024 ft 500 kts 175°
2026-05-06 21:40 27.59449 -82.63571 33027 ft 500 kts 175°
2026-05-06 21:41 27.52685 -82.62242 33029 ft 502 kts 175°
2026-05-06 21:41 27.46082 -82.60582 33027 ft 504 kts 170°
2026-05-06 21:42 27.39334 -82.58507 33025 ft 505 kts 169°
2026-05-06 21:42 27.32634 -82.56407 33028 ft 505 kts 169°
2026-05-06 21:43 27.25939 -82.54374 33030 ft 504 kts 170°
2026-05-06 21:43 27.19129 -82.52355 33031 ft 505 kts 170°
2026-05-06 21:44 27.12308 -82.50359 33029 ft 505 kts 170°
2026-05-06 21:44 27.05518 -82.48379 33030 ft 505 kts 170°
2026-05-06 21:45 26.98742 -82.46407 33027 ft 504 kts 170°
2026-05-06 21:45 26.95384 -82.45364 32861 ft 508 kts 167°
2026-05-06 21:45 26.92038 -82.43996 32489 ft 513 kts 161°
2026-05-06 21:46 26.88802 -82.42269 32118 ft 513 kts 155°
2026-05-06 21:46 26.85751 -82.40222 31752 ft 514 kts 149°
2026-05-06 21:46 26.82859 -82.37837 31383 ft 516 kts 143°
2026-05-06 21:46 26.80203 -82.35211 31019 ft 518 kts 138°
2026-05-06 21:47 26.77623 -82.32385 30650 ft 519 kts 136°
2026-05-06 21:47 26.75062 -82.29509 30278 ft 519 kts 136°
2026-05-06 21:47 26.72512 -82.26695 29910 ft 518 kts 137°
2026-05-06 21:47 26.69902 -82.23910 29541 ft 518 kts 139°
2026-05-06 21:48 26.67280 -82.21218 29176 ft 518 kts 140°
2026-05-06 21:48 26.64596 -82.18549 28800 ft 519 kts 140°
2026-05-06 21:48 26.61862 -82.15893 28412 ft 519 kts 141°
2026-05-06 21:48 26.59140 -82.13286 28030 ft 521 kts 141°
2026-05-06 21:49 26.56365 -82.10648 27641 ft 521 kts 141°
2026-05-06 21:49 26.53638 -82.08064 27263 ft 522 kts 141°
2026-05-06 21:49 26.50849 -82.05396 26874 ft 523 kts 140°
2026-05-06 21:49 26.48126 -82.02715 26491 ft 523 kts 139°
2026-05-06 21:50 26.45437 -82.00012 26111 ft 523 kts 139°
2026-05-06 21:50 26.42739 -81.97276 25728 ft 524 kts 139°
2026-05-06 21:50 26.40058 -81.94546 25349 ft 526 kts 138°
2026-05-06 21:50 26.37328 -81.91770 24966 ft 531 kts 138°
2026-05-06 21:51 26.34629 -81.89033 24671 ft 526 kts 138°
2026-05-06 21:51 26.31961 -81.86336 24085 ft 517 kts 138°
2026-05-06 21:51 26.29317 -81.83672 23527 ft 508 kts 138°
2026-05-06 21:51 26.26768 -81.80997 23064 ft 496 kts 134°
2026-05-06 21:52 26.24508 -81.78138 22736 ft 481 kts 127°
2026-05-06 21:52 26.22627 -81.75173 22501 ft 466 kts 121°
2026-05-06 21:52 26.21014 -81.72094 22279 ft 452 kts 116°
2026-05-06 21:52 26.19600 -81.69047 22115 ft 437 kts 114°
2026-05-06 21:53 26.18296 -81.66046 21985 ft 424 kts 113°
2026-05-06 21:53 26.17066 -81.63132 21749 ft 422 kts 113°
2026-05-06 21:53 26.15819 -81.60161 21384 ft 424 kts 113°
2026-05-06 21:53 26.14580 -81.57223 21022 ft 420 kts 113°
2026-05-06 21:54 26.13331 -81.54291 20657 ft 415 kts 113°
2026-05-06 21:54 26.12096 -81.51416 20297 ft 411 kts 113°
2026-05-06 21:54 26.10870 -81.48581 19931 ft 407 kts 113°
2026-05-06 21:54 26.09646 -81.45762 19444 ft 406 kts 113°
2026-05-06 21:55 26.08419 -81.42945 18783 ft 407 kts 113°
2026-05-06 21:55 26.07188 -81.40121 18153 ft 406 kts 113°
2026-05-06 21:55 26.05961 -81.37304 17509 ft 404 kts 113°
2026-05-06 21:55 26.04746 -81.34509 16878 ft 403 kts 114°
2026-05-06 21:56 26.03534 -81.31721 16235 ft 400 kts 113°
2026-05-06 21:56 26.02343 -81.28988 15974 ft 379 kts 113°
2026-05-06 21:56 26.01222 -81.26422 15832 ft 368 kts 113°
2026-05-06 21:56 26.00102 -81.23852 15344 ft 365 kts 113°
2026-05-06 21:57 25.99015 -81.21356 14911 ft 361 kts 113°
2026-05-06 21:57 25.97929 -81.18864 14490 ft 357 kts 112°
2026-05-06 21:57 25.96843 -81.16375 13998 ft 354 kts 112°
2026-05-06 21:57 25.95783 -81.13953 13587 ft 349 kts 112°
2026-05-06 21:58 25.94730 -81.11546 13135 ft 347 kts 112°
2026-05-06 21:58 25.93679 -81.09145 12699 ft 343 kts 112°
2026-05-06 21:58 25.92640 -81.06774 12227 ft 340 kts 112°
2026-05-06 21:58 25.91616 -81.04439 11969 ft 331 kts 112°
2026-05-06 21:59 25.90660 -81.02192 11861 ft 318 kts 110°
2026-05-06 21:59 25.89797 -80.99972 11786 ft 304 kts 109°
2026-05-06 21:59 25.89004 -80.97839 11720 ft 290 kts 108°
2026-05-06 21:59 25.88258 -80.95832 11637 ft 273 kts 108°
2026-05-06 22:00 25.87542 -80.93926 11210 ft 272 kts 109°
2026-05-06 22:00 25.86799 -80.91954 10489 ft 282 kts 109°
2026-05-06 22:00 25.86038 -80.89955 9941 ft 282 kts 109°
2026-05-06 22:00 25.85269 -80.87959 9485 ft 280 kts 110°
2026-05-06 22:01 25.84507 -80.85985 9033 ft 278 kts 110°
2026-05-06 22:01 25.83758 -80.84039 8576 ft 276 kts 110°
2026-05-06 22:01 25.83005 -80.82084 8127 ft 273 kts 110°
2026-05-06 22:01 25.82273 -80.80184 7695 ft 270 kts 110°
2026-05-06 22:02 25.81531 -80.78258 7234 ft 268 kts 111°
2026-05-06 22:02 25.80810 -80.76383 6811 ft 265 kts 111°
2026-05-06 22:02 25.80084 -80.74504 6317 ft 263 kts 111°
2026-05-06 22:02 25.79371 -80.72654 5831 ft 262 kts 111°
2026-05-06 22:03 25.78663 -80.70818 5359 ft 260 kts 111°
2026-05-06 22:03 25.77955 -80.68983 4919 ft 257 kts 112°
2026-05-06 22:03 25.77296 -80.67151 4575 ft 255 kts 107°
2026-05-06 22:03 25.77019 -80.65236 4344 ft 251 kts 90°
2026-05-06 22:04 25.77121 -80.63297 4266 ft 252 kts 84°
2026-05-06 22:04 25.77280 -80.61365 4193 ft 256 kts 85°
2026-05-06 22:04 25.77410 -80.59397 4105 ft 255 kts 86°
2026-05-06 22:04 25.77510 -80.57450 4015 ft 253 kts 86°
2026-05-06 22:05 25.77545 -80.55492 3870 ft 256 kts 89°
2026-05-06 22:05 25.77571 -80.53516 3588 ft 255 kts 88°
2026-05-06 22:05 25.77652 -80.51579 3318 ft 246 kts 86°
2026-05-06 22:05 25.77775 -80.49728 3147 ft 234 kts 85°
2026-05-06 22:06 25.77898 -80.47958 2991 ft 229 kts 87°
2026-05-06 22:06 25.77901 -80.46182 2743 ft 232 kts 90°
2026-05-06 22:06 25.77917 -80.44423 2344 ft 227 kts 88°
2026-05-06 22:06 25.78005 -80.42754 2047 ft 208 kts 85°
2026-05-06 22:07 25.78118 -80.41209 1779 ft 198 kts 86°
2026-05-06 22:07 25.78208 -80.39719 1566 ft 190 kts 85°
2026-05-06 22:07 25.78302 -80.38305 1323 ft 172 kts 87°
2026-05-06 22:07 25.78365 -80.37057 1170 ft 160 kts 87°
2026-05-06 22:08 25.78422 -80.35859 899 ft 152 kts 88°
2026-05-06 22:08 25.78466 -80.34755 690 ft 135 kts 87°
2026-05-06 22:08 25.78509 -80.33740 481 ft 134 kts 88°
2026-05-06 22:08 25.78556 -80.32709 324 ft 131 kts 88°
2026-05-06 22:09 25.78598 -80.31702 162 ft 128 kts 88°
2026-05-06 22:09 25.78639 -80.30766 20 ft 121 kts 88°
2026-05-06 22:09 25.78672 -80.29977 12 ft 83 kts 88°
2026-05-06 22:09 25.78694 -80.29439 14 ft 67 kts 84°
2026-05-06 22:10 25.78794 -80.29172 15 ft 18 kts 26°
2026-05-06 22:10 25.78824 -80.29163 15 ft 4 kts
2026-05-06 22:10 25.78890 -80.29140 15 ft 10 kts 53°
2026-05-06 22:10 25.78904 -80.29060 15 ft 13 kts 84°
2026-05-06 22:11 25.78930 -80.28934 16 ft 18 kts 76°
2026-05-06 22:11 25.78949 -80.28786 15 ft 19 kts 88°
2026-05-06 22:11 25.78954 -80.28644 15 ft 17 kts 85°
2026-05-06 22:11 25.78959 -80.28550 15 ft 0 kts 88°
2026-05-06 22:12 25.78959 -80.28543 15 ft 4 kts 88°
2026-05-06 22:12 25.78964 -80.28419 15 ft 21 kts 86°
2026-05-06 22:12 25.78996 -80.28272 12 ft 15 kts 33°
2026-05-06 22:12 25.79061 -80.28317 12 ft 12 kts 302°
2026-05-06 22:13 25.79106 -80.28403 12 ft 15 kts 303°
2026-05-06 22:13 25.79174 -80.28507 12 ft 16 kts 301°
2026-05-06 22:13 25.79231 -80.28616 13 ft 15 kts 299°
2026-05-06 22:13 25.79283 -80.28718 14 ft 14 kts 300°
2026-05-06 22:14 25.79348 -80.28792 14 ft 13 kts 349°
2026-05-06 22:14 25.79443 -80.28799 13 ft 14 kts 357°
2026-05-06 22:14 25.79538 -80.28799 12 ft 11 kts 20°
2026-05-06 22:14 25.79571 -80.28732 12 ft 10 kts 78°
2026-05-06 22:15 25.79596 -80.28618 12 ft 19 kts 78°
2026-05-06 22:15 25.79623 -80.28512 12 ft 7 kts 58°
2026-05-06 22:15 25.79658 -80.28490 12 ft 4 kts 60°
2026-05-06 22:15 25.79668 -80.28439 12 ft 10 kts 86°
2026-05-06 22:16 25.79670 -80.28360 12 ft 10 kts 89°
2026-05-06 22:16 25.79687 -80.28306 12 ft 6 kts 10°
2026-05-06 22:16 25.79730 -80.28304 12 ft 2 kts
2026-05-06 22:16 25.79734 -80.28304 12 ft 0 kts